QPF
0.00 0.00 0.00 0.00 0.00 0.00 0.00 0.00 0.00 0.00 0.00 0.00 0.00 0.00 0.00 0.00 0.00 0.00 0.00 0.00 0.00 0.00 0.00 0.00 0.00 0.00 0.00 0.00 0.00 0.00 0.00 0.00
0.00 0.00 0.00 0.00 0.00 0.00 0.00 0.00 0.00 0.00 0.00 0.00 0.00 0.00 0.00 0.00 0.00 0.00 0.00 0.00 0.00 0.00 0.00 0.00 0.00 0.00 0.00 0.00 0.00 0.00 0.00 0.00
0.00 0.00 0.00 0.02 0.03 0.00 0.00 0.00 0.00 0.00 0.00 0.00 0.00 0.00 0.00 0.00 0.00 0.00 0.00 0.00 0.00 0.00 0.00 0.00 0.00 0.00 0.00 0.00 0.00 0.00 0.00 0.00
0.00 0.00 0.00 0.00 0.00 0.00 0.04 0.00 0.00 0.00 0.00 0.00 0.00 0.00 0.00 0.00 0.00 0.00 0.00 0.00 0.00 0.00 0.00 0.00 0.00 0.00 0.00 0.00 0.00 0.00 0.00 0.00
0.00 0.00 0.00 0.00 0.00 0.00 0.00 0.00 0.00 0.00 0.00 0.00 0.00 0.00 0.00 0.00 0.00 0.00 0.00 0.00 0.00 0.00 0.00 0.00 0.00 0.00 0.00 0.00 0.00 0.00 0.00 0.00
0.00 0.00 0.00 0.00 0.00 0.00 0.00 0.00 0.00 0.00 0.00 0.00 0.00 0.00 0.00 0.00 0.00 0.00 0.00 0.00 0.00 0.00 0.00 0.00 0.00 0.00 0.00 0.00 0.00 0.00 0.00 0.00
0.00 0.00 0.00 0.00 0.00 0.00 0.00 0.00 0.00 0.00 0.00 0.00 0.00 0.00 0.00 0.00 0.00 0.00 0.00 0.00 0.00 0.00 0.00 0.00 0.00 0.00 0.00 0.00 0.00 0.00 0.00 0.00
0.00 0.00 0.00 0.00 0.00 0.00 0.00 0.00 0.00 0.00 0.00 0.00 0.00 0.00 0.00 0.00 0.00 0.00 0.00 0.00 0.00 0.00 0.00 0.00 0.00 0.00 0.00 0.00 0.00 0.00 0.00 0.00
0.00 0.00 0.00 0.00 0.00 0.00 0.00 0.00 0.00 0.00 0.00 0.00 0.00 0.00 0.00 0.00 0.00 0.00 0.00 0.00 0.00 0.00 0.00 0.00 0.00 0.00 0.00 0.00 0.00 0.00 0.00 0.00
0.00 0.00 0.00 0.00 0.00 0.00 0.00 0.00 0.00 0.00 0.00 0.00 0.00 0.00 0.00 0.00 0.00 0.00 0.00 0.00 0.00 0.00 0.00 0.00 0.00 0.00 0.00 0.00 0.00 0.00 0.00 0.00
0.00 0.00 0.00 0.00 0.00 0.00 0.00 0.00 0.00 0.00 0.00 0.00 0.00 0.00 0.00 0.00 0.00 0.00 0.00 0.00 0.00 0.00 0.00 0.00 0.00 0.00 0.00 0.00 0.00 0.00 0.00 0.00
0.00 0.00 0.00 0.00 0.01 0.02 0.01 0.00 0.00 0.01 0.00 0.00 0.00 0.00 0.00 0.00 0.00 0.00 0.00 0.00 0.00 0.00 0.00 0.00 0.00 0.00 0.00 0.00 0.00 0.00 0.00 0.00
0.00 0.00 0.00 0.00 0.01 0.00 0.01 0.00 0.01 0.00 0.00 0.00 0.00 0.00 0.00 0.00 0.00 0.00 0.00 0.00 0.00 0.00 0.00 0.00 0.00 0.00 0.00 0.00 0.00 0.00 0.00 0.00
0.00 0.00 0.00 0.00 0.00 0.00 0.00 0.00 0.00 0.00 0.00 0.00 0.00 0.00 0.00 0.00 0.00 0.00 0.00 0.00 0.00 0.00 0.00 0.00 0.00 0.00 0.00 0.00 0.00 0.00 0.00 0.00
0.00 0.00 0.00 0.00 0.00 0.00 0.00 0.00 0.00 0.00 0.00 0.00 0.00 0.00 0.00 0.00 0.00 0.00 0.00 0.00 0.00 0.00 0.00 0.00 0.00 0.00 0.00 0.00 0.00 0.00 0.00 0.00
0.00 0.00 0.00 0.00 0.00 0.00 0.00 0.00 0.00 0.00 0.00 0.00 0.00 0.00 0.00 0.00 0.00 0.00 0.00 0.00 0.00 0.00 0.00 0.00 0.00 0.00 0.00 0.00 0.00 0.00 0.00 0.00
0.00 0.00 0.00 0.00 0.00 0.00 0.00 0.00 0.00 0.00 0.00 0.00 0.00 0.00 0.00 0.00 0.00 0.00 0.00 0.00 0.00 0.00 0.00 0.00 0.00 0.00 0.00 0.00 0.00 0.00 0.00 0.00
0.00 0.00 0.00 0.00 0.00 0.00 0.00 0.00 0.00 0.00 0.00 0.00 0.00 0.00 0.00 0.00 0.00 0.00 0.00 0.00 0.00 0.00 0.00 0.00 0.00 0.00 0.00 0.00 0.00 0.00 0.00 0.00
0.00 0.00 0.00 0.00 0.00 0.00 0.00 0.00 0.00 0.00 0.00 0.00 0.00 0.00 0.00 0.00 0.00 0.00 0.00 0.00 0.00 0.00 0.00 0.00 0.00 0.00 0.00 0.00 0.00 0.00 0.00 0.00
0.00 0.00 0.00 0.00 0.00 0.00 0.00 0.00 0.00 0.00 0.00 0.00 0.00 0.00 0.00 0.00 0.00 0.00 0.00 0.00 0.00 0.00 0.00 0.00 0.00 0.00 0.00 0.00 0.00 0.00 0.00 0.00
MSLP
1015.00 1015.75 1016.41 1016.76 1017.07 1017.32 1017.50 1017.61 1017.70 1017.77 1017.91 1018.04 1018.10 1018.10 1018.08 1018.10 1018.18 1018.29 1018.39 1018.47 1018.56 1018.72 1018.85 1018.90 1018.86 1018.80 1018.70 1018.50 1018.32 1018.10 1017.47 1015.41
1014.92 1015.45 1015.75 1016.33 1017.01 1017.56 1017.76 1017.87 1017.93 1017.90 1017.90 1017.94 1017.96 1018.01 1018.00 1018.10 1018.25 1018.44 1018.60 1018.73 1018.73 1018.75 1018.72 1018.66 1018.60 1018.57 1018.39 1018.24 1018.11 1017.81 1016.96 1015.40
1015.25 1015.55 1015.77 1016.02 1016.49 1017.31 1017.76 1017.84 1017.80 1017.86 1017.86 1017.83 1017.67 1017.13 1016.99 1017.33 1018.05 1018.33 1018.50 1018.56 1018.61 1018.58 1018.57 1018.50 1018.39 1018.14 1017.74 1017.68 1017.70 1016.69 1015.66 1015.32
1015.34 1015.72 1015.78 1015.83 1016.00 1016.69 1016.91 1016.75 1016.88 1016.80 1016.73 1017.11 1016.48 1016.98 1017.02 1017.12 1017.57 1018.01 1018.17 1018.26 1018.24 1018.23 1018.20 1018.12 1018.08 1016.76 1016.15 1017.22 1016.76 1015.74 1015.84 1015.46
1015.06 1015.88 1015.74 1015.39 1014.81 1015.35 1015.33 1015.85 1016.28 1016.81 1017.00 1016.95 1016.94 1016.82 1016.79 1016.66 1016.52 1016.87 1017.02 1017.69 1016.82 1017.50 1017.37 1017.16 1016.02 1016.25 1015.98 1015.92 1015.87 1015.87 1015.35 1014.96
1014.86 1015.40 1016.23 1016.26 1015.51 1015.58 1015.30 1015.64 1016.19 1016.08 1016.50 1017.18 1016.82 1016.37 1016.50 1016.55 1016.05 1016.26 1016.55 1016.05 1016.29 1016.35 1015.87 1015.90 1016.37 1016.28 1016.18 1016.16 1016.07 1015.91 1015.40 1015.01
1014.62 1014.98 1016.35 1016.78 1016.07 1015.55 1015.51 1016.17 1016.61 1016.87 1017.02 1017.86 1017.40 1016.69 1016.70 1016.43 1016.01 1016.00 1015.92 1015.69 1015.71 1015.75 1015.61 1015.52 1015.60 1015.56 1015.45 1015.43 1015.43 1015.39 1015.26 1015.06
1015.20 1015.55 1016.40 1016.04 1016.42 1016.03 1016.67 1017.35 1017.84 1017.62 1018.01 1018.50 1018.17 1017.67 1017.70 1016.86 1016.52 1016.57 1016.67 1016.78 1016.54 1016.27 1015.89 1015.94 1015.64 1015.31 1015.24 1015.03 1014.92 1014.81 1014.63 1014.49
1016.09 1016.82 1016.96 1017.07 1017.32 1017.32 1017.53 1018.05 1018.05 1018.25 1018.66 1019.33 1019.31 1018.93 1018.41 1018.20 1017.40 1017.48 1017.52 1017.49 1017.37 1016.95 1016.64 1016.10 1016.03 1015.72 1015.61 1015.32 1015.10 1014.91 1014.71 1014.45
1017.21 1017.51 1017.92 1018.09 1018.26 1018.46 1018.69 1019.02 1018.87 1019.15 1019.56 1019.65 1019.45 1019.27 1019.01 1018.59 1018.29 1018.53 1018.63 1018.21 1018.03 1017.81 1017.50 1017.00 1016.68 1016.45 1016.29 1015.86 1015.24 1014.72 1014.33 1014.30
1018.12 1018.56 1018.85 1019.11 1019.24 1019.32 1019.91 1020.07 1020.03 1020.44 1020.68 1020.42 1020.03 1019.96 1019.60 1019.11 1019.25 1019.33 1018.83 1018.55 1018.70 1018.62 1018.17 1017.75 1017.22 1016.85 1016.63 1015.96 1015.30 1014.72 1014.15 1013.64
1018.68 1019.24 1019.77 1020.24 1020.50 1020.69 1020.88 1020.92 1020.99 1020.66 1020.64 1020.93 1020.55 1020.49 1020.39 1019.73 1019.83 1019.99 1019.44 1019.36 1019.45 1019.47 1019.05 1018.45 1017.87 1017.70 1017.32 1015.95 1015.32 1014.95 1014.48 1014.13
1018.96 1019.57 1020.00 1020.23 1020.37 1020.35 1020.54 1020.70 1020.48 1021.09 1020.85 1021.01 1020.96 1020.99 1020.95 1020.64 1020.22 1020.26 1019.86 1020.26 1020.44 1020.24 1019.77 1019.03 1018.37 1018.49 1017.50 1016.77 1015.27 1014.58 1014.93 1015.59
1018.90 1019.39 1019.67 1019.79 1019.71 1019.56 1019.49 1020.27 1020.34 1020.63 1021.19 1021.45 1021.47 1021.42 1021.41 1021.20 1021.10 1020.94 1020.95 1020.63 1020.98 1020.89 1020.61 1020.01 1019.04 1019.21 1018.97 1017.23 1015.94 1014.64 1016.17 1016.11
1018.31 1018.99 1019.39 1019.61 1019.77 1019.92 1020.27 1020.53 1020.46 1020.35 1020.92 1021.53 1021.91 1021.87 1021.86 1022.01 1021.89 1021.79 1021.61 1021.48 1021.48 1021.53 1021.42 1020.97 1020.23 1019.94 1019.99 1019.93 1018.67 1017.94 1018.11 1016.65
1017.55 1018.17 1018.70 1019.15 1019.19 1019.26 1019.37 1019.37 1019.80 1020.72 1021.26 1021.87 1022.21 1022.35 1022.56 1022.56 1022.55 1022.58 1022.31 1022.17 1022.23 1022.14 1022.10 1021.71 1021.42 1020.90 1020.63 1020.83 1020.92 1020.68 1019.67 1018.27
1017.88 1018.30 1018.64 1018.99 1019.14 1019.32 1019.45 1019.83 1020.66 1021.13 1021.63 1022.07 1022.51 1023.01 1023.10 1023.05 1023.08 1022.91 1022.73 1022.63 1022.88 1022.79 1022.78 1022.53 1022.26 1022.14 1021.81 1021.60 1021.22 1020.93 1020.57 1020.54
1018.03 1018.39 1018.89 1019.24 1019.55 1019.78 1019.94 1020.43 1020.70 1021.21 1021.55 1021.96 1022.44 1022.73 1023.03 1023.37 1023.24 1023.21 1023.32 1023.29 1023.37 1023.26 1023.26 1023.27 1023.21 1023.03 1022.85 1022.45 1022.32 1022.04 1021.78 1021.56
1017.93 1018.39 1019.00 1019.47 1019.89 1020.29 1020.72 1021.02 1021.32 1021.64 1021.76 1022.02 1022.22 1022.67 1023.18 1023.70 1023.59 1023.73 1023.79 1024.00 1023.85 1023.70 1023.76 1023.69 1023.66 1023.71 1023.67 1023.56 1023.27 1022.97 1022.99 1022.75
1017.75 1018.45 1019.07 1019.67 1020.20 1020.62 1021.08 1021.26 1021.48 1021.78 1022.18 1022.28 1022.59 1023.03 1023.62 1023.89 1024.17 1024.30 1024.39 1024.48 1024.28 1024.08 1024.21 1024.08 1024.22 1024.25 1024.59 1024.66 1024.24 1024.15 1024.08 1023.91
Thickness
5738 5732 5726 5723 5720 5717 5715 5713 5711 5709 5707 5705 5705 5704 5704 5704 5704 5704 5704 5704 5703 5701 5700 5700 5701 5702 5704 5706 5709 5711 5715 5731
5740 5736 5732 5728 5722 5717 5714 5712 5710 5710 5709 5707 5706 5705 5706 5706 5705 5704 5704 5703 5702 5702 5703 5704 5705 5707 5708 5710 5712 5715 5720 5731
5738 5735 5733 5731 5726 5720 5716 5714 5713 5712 5711 5711 5712 5714 5714 5712 5707 5705 5703 5703 5703 5704 5704 5706 5708 5711 5714 5715 5715 5720 5727 5730
5738 5734 5733 5732 5730 5724 5721 5721 5720 5720 5720 5717 5721 5716 5715 5714 5711 5709 5707 5706 5706 5706 5707 5708 5709 5716 5721 5715 5717 5724 5723 5725
5739 5732 5733 5735 5739 5734 5733 5729 5725 5720 5719 5719 5719 5719 5719 5719 5720 5717 5715 5711 5715 5711 5711 5712 5720 5718 5720 5721 5721 5720 5723 5725
5739 5734 5728 5728 5732 5731 5733 5730 5725 5726 5722 5717 5720 5723 5721 5720 5723 5721 5718 5721 5719 5717 5721 5720 5716 5716 5716 5716 5716 5716 5719 5721
5738 5737 5726 5722 5727 5730 5730 5725 5721 5718 5716 5710 5713 5718 5718 5719 5722 5721 5721 5722 5722 5721 5721 5722 5720 5720 5720 5720 5719 5718 5718 5718
5731 5730 5721 5725 5722 5725 5719 5714 5710 5711 5707 5703 5705 5708 5707 5712 5714 5713 5712 5710 5711 5713 5716 5716 5717 5719 5720 5720 5720 5719 5719 5719
5721 5715 5714 5714 5712 5712 5709 5705 5705 5703 5699 5694 5693 5695 5697 5698 5703 5702 5701 5700 5701 5703 5705 5709 5711 5711 5711 5713 5714 5714 5714 5714
5708 5707 5704 5702 5701 5700 5697 5694 5694 5692 5688 5686 5686 5686 5687 5690 5691 5689 5688 5690 5691 5692 5694 5697 5700 5700 5699 5701 5705 5707 5708 5707
5696 5694 5693 5691 5690 5689 5685 5684 5683 5679 5676 5676 5677 5677 5678 5681 5680 5678 5681 5682 5680 5680 5683 5685 5688 5690 5690 5694 5698 5700 5702 5704
5687 5684 5680 5678 5677 5676 5675 5673 5673 5672 5671 5667 5669 5668 5668 5672 5670 5668 5671 5670 5670 5669 5670 5675 5678 5677 5678 5687 5690 5691 5693 5693
5678 5675 5672 5672 5672 5673 5672 5670 5670 5663 5663 5660 5661 5659 5659 5660 5662 5661 5663 5659 5657 5657 5660 5664 5668 5665 5671 5672 5684 5689 5684 5673
5672 5669 5669 5670 5671 5673 5673 5666 5665 5660 5654 5651 5650 5650 5650 5650 5651 5651 5650 5652 5649 5648 5648 5651 5658 5655 5652 5664 5667 5679 5663 5661
5670 5666 5664 5663 5663 5662 5659 5657 5656 5656 5650 5645 5641 5641 5641 5639 5639 5639 5640 5639 5638 5636 5636 5638 5642 5643 5639 5634 5640 5639 5634 5649
5669 5666 5663 5661 5661 5661 5660 5661 5655 5646 5641 5635 5632 5631 5629 5629 5628 5627 5628 5627 5626 5625 5624 5626 5626 5627 5627 5623 5618 5615 5617 5626
5658 5656 5656 5654 5654 5654 5652 5649 5641 5637 5632 5627 5624 5620 5619 5619 5618 5618 5617 5617 5614 5614 5612 5612 5613 5611 5611 5608 5608 5607 5608 5602
5646 5646 5645 5645 5643 5642 5640 5635 5632 5628 5626 5623 5619 5616 5613 5609 5609 5609 5607 5606 5604 5604 5602 5600 5598 5596 5594 5594 5591 5590 5588 5587
5640 5639 5636 5635 5632 5628 5625 5622 5620 5617 5617 5615 5614 5610 5606 5601 5601 5599 5597 5594 5595 5593 5591 5589 5587 5583 5580 5577 5576 5575 5570 5568
5634 5630 5627 5624 5621 5618 5614 5613 5612 5610 5607 5607 5605 5601 5596 5593 5590 5587 5586 5584 5584 5583 5580 5578 5574 5570 5564 5559 5559 5556 5552 5549